This is the latest recevied weather packets stored in our database for station/object K1TTC. If no packets are shown the sender has not sent any weather packets the latest 10 day(s).
| Time | Temp. | Humidity | Pressure | Rain* | Wind** | Luminosity | Snow |
|---|---|---|---|---|---|---|---|
| 1777913544 | 21.11° C | 25% | 1008.6 hPa | 0 mm | - | 925 W/m² | - |
| 1777912944 | 20.56° C | 28% | 1008.8 hPa | 0 mm | - | 923 W/m² | - |
| 1777912343 | 20.56° C | 25% | 1009 hPa | 0 mm | - | 928 W/m² | - |
| 1777911744 | 20.56° C | 27% | 1008.8 hPa | 0 mm | - | 926 W/m² | - |
| 1777911240 | 20° C | 27% | 1009 hPa | 0 mm | - | 923 W/m² | - |
| 1777910544 | 20.56° C | 26% | 1009.1 hPa | 0 mm | - | 919 W/m² | - |
| 1777909944 | 20.56° C | 29% | 1009.2 hPa | 0 mm | - | 909 W/m² | - |
| 1777909344 | 19.44° C | 30% | 1009.4 hPa | 0 mm | - | 904 W/m² | - |
| 1777908745 | 19.44° C | 27% | 1009.5 hPa | 0 mm | - | 896 W/m² | - |
| 1777908146 | 19.44° C | 30% | 1009.7 hPa | 0 mm | - | 889 W/m² | - |
| 1777907543 | 18.89° C | 30% | 1009.9 hPa | 0 mm | - | 756 W/m² | - |
| 1777906944 | 18.89° C | 31% | 1009.9 hPa | 0 mm | - | 800 W/m² | - |
| 1777906344 | 18.89° C | 30% | 1009.9 hPa | 0 mm | - | 863 W/m² | - |
| 1777905743 | 18.33° C | 32% | 1010.1 hPa | 0 mm | - | 846 W/m² | - |
| 1777905144 | 18.33° C | 35% | 1010.3 hPa | 0 mm | - | 812 W/m² | - |
| 1777904541 | 17.22° C | 33% | 1010.4 hPa | 0 mm | - | 773 W/m² | - |
| 1777903943 | 17.22° C | 34% | 1010.5 hPa | 0 mm | - | 773 W/m² | - |
| 1777903340 | 16.67° C | 36% | 1010.6 hPa | 0 mm | - | 752 W/m² | - |
| 1777902738 | 16.67° C | 35% | 1010.5 hPa | 0 mm | - | 724 W/m² | - |
| 1777902139 | 16.67° C | 37% | 1010.7 hPa | 0 mm | - | 689 W/m² | - |
| 1777901537 | 16.11° C | 37% | 1010.8 hPa | 0 mm | - | 666 W/m² | - |
| 1777900935 | 15.56° C | 37% | 1011 hPa | 0 mm | - | 640 W/m² | - |
| 1777900335 | 15° C | 38% | 1011 hPa | 0 mm | - | 608 W/m² | - |
| 1777899733 | 15° C | 39% | 1011.2 hPa | 0 mm | - | 584 W/m² | - |
| 1777899134 | 14.44° C | 41% | 1011.4 hPa | 0 mm | - | 555 W/m² | - |
* Rain latest hour (hover to see other rain measurements)
** Current wind speed in m/s (hover to see current wind gust speed)